OBJECT B, 60013

Orbit data source: Space-Track

You're viewing an Uncataloged Satellite

Recently launched and/or uncataloged satellites may have evolving metadata. Metadata may include but not limited to: Owner, Maufacturer, Bus, Motor, and Mission.

OBJECT B, 60013 is a satellite owned by Tsinghua (CN) in SSO that was launched on Thu, 06 Jun 2024 UTC via a GUSHENXING 1 launch vehicle from the Jiuquan Satellite Launch Center, China (JSC). Unknown objects in Earth's orbit typically refer to objects detected orbiting the Earth but have not yet been identified or cataloged. These objects could be anything from previously untracked satellites, spent rocket stages, debris from satellite collisions, or even natural meteoroids temporarily captured by Earth's gravity.

Loading next visibility...
Identifier
60013, 2024-110B
Orbit
SSO
Country
Flag of CNCN / PRC
Related business
Manufacturer
Tsinghua
Mission
Operational Amateur Imaging
Bus & Motor
NAXING, Unknown motor
Mass
20 kg wet, 20 kg dry
Launch date (UTC)
2024-06-06 (2 years ago)
Launch vehicle
GUSHENXING 1
Launch site
Jiuquan Satellite Launch Center, China (JSC)
Object type
Unknown
Shape & HBR
Box, 0.2 m
Radar Cross Section
0.240 m², Medium (>0.1 m² and < 1m²)

Expand to show TLE details & history
Last TLE update: 23 hours ago

TLE from 23 hours ago
0 OBJECT B
1 60013U 24110B   26172.50438822  .00005666  00000-0  24732-3 0  9992
2 60013  97.5724 268.4932 0009971 228.8876 131.1500 15.22505804112846
Epoch: 2026-06-21T12:06Z
TLE epoch observation values (Epoch: 2026-06-21T12:06:19.142Z)
Latitude
0.00001°
Longitude
177.20973°
Altitude
505.891 km
Speed
7.609 km/s
True Right ascension
17h 53m 58s
True Declination
0° 00' 00"
Sunlit
Object was in full shadow at epoch
Visualization orbit readout
Latitude
Unknown
Longitude
Unknown
Altitude
Unknown
Speed
Unknown
Apparent Right ascension
Unknown
Apparent Declination
Unknown
Sunlit
N/A
Visualization observer readout
Local Sidereal Time
21:40:50
Azimuth
Unknown
Elevation
Unknown
Doppler factor
Unknown
Orbital elements
Apogee altitude
502.108 km
Perigee altitude
488.401 km
Semi-major axis
6,873.392 km
Eccentricity
0.001
Inclination
97.5724°
RAAN
268.4932°
Arg. of periapsis
228.8876°
True anomaly
131.23597°
Mean anomaly
131.15°
Eccentric anomaly
131.19299°
Mean motion
3.80879 °/min
Orbital period
94.52 mins
BSTAR
0.00024732
Loading maneuver chart data...
Computing Atmospheric mass density...
Loading historical data...
Loading historical data...
Loading historical data...
Loading historical data...
Loading historical data...
Loading historical data...
Loading historical data...
Other satellites on launch #110 in the year 2024 (2024-06-06 UTC)

Documentation

Showing up to 5 results
|